Offutt Air Force Base, NE

3:00 PM CDT on September 29, 2016 (GMT -0500)
Offutt Air Force Base

Weather History for KOFF - February, 2014

Change the Weather History Date:

Saturday, February 1, 2014

  Actual Average Record
Temperature  
Mean Temperature 20 °F -  
Max Temperature 27 °F 33 °F 60 °F (2012)
Min Temperature 11 °F 17 °F -5 °F (2013)
Degree Days  
Heating Degree Days 45    
Moisture  
Dew Point 17 °F    
Average Humidity 89    
Maximum Humidity 100    
Minimum Humidity 60    
Precipitation  
Precipitation 0.00 in - - ()
Snow  
Snow 0.00 in - - ()
Snow Depth 1.00 in    
Sea Level Pressure  
Sea Level Pressure 30.03 in    
Wind  
Wind Speed 5 mph (North)    
Max Wind Speed 17 mph    
Max Gust Speed 22 mph    
Visibility 9 miles    
Events Snow    
Averages and records for this station are not official NWS values.
T = Trace of Precipitation, MM = Missing Value Source: NWS Daily Summary

Daily Weather History Graph

Daily Weather History Graph

Search for Another Location

Airport or City:

Trip Planner

Search our weather history database for the weather conditions in past years. The results will help you decide how hot, cold, wet, or windy it might be!

Date:

Astronomy

Feb. 01, 2014 Rise Set
Actual Time 7:34 AM CST 5:40 PM CST
Civil Twilight 7:05 AM CST 6:09 PM CST
Nautical Twilight 6:32 AM CST 6:42 PM CST
Astronomical Twilight 6:00 AM CST 7:15 PM CST
Moon 8:23 AM CST (2/1) 8:18 PM CST (2/1)
Length of Visible Light 11h 04m
Length of Day
10h 06m
Waxing Crescent, 5% of the Moon is Illuminated
Feb 1
Waxing Crescent
Feb 6
First Quarter
Feb 14
Full
Feb 22
Last Quarter
Mar 1
New

Hourly Weather History & Observations

Time (CST) Temp. Windchill Dew Point Humidity Pressure Visibility Wind Dir Wind Speed Gust Speed Precip Events Conditions
12:08 AM 19.4 °F - 19.4 °F 100% 29.97 in 6.0 mi North 2.3 mph - N/A Snow Light Snow
12:23 AM 19.4 °F 12.8 °F 19.4 °F 100% 29.96 in 10.0 mi NNE 4.6 mph - N/A Snow Light Snow
12:33 AM 19.4 °F 12.8 °F 19.4 °F 100% 29.96 in 9.0 mi NE 4.6 mph - N/A Snow Light Snow
12:48 AM 19.4 °F 14.3 °F 19.4 °F 100% 29.96 in 9.0 mi NE 3.5 mph - N/A Snow Light Snow
12:58 AM 19.9 °F 14.9 °F 19.4 °F 98% 30.02 in 10.0 mi NE 3.5 mph - 0.00 in Snow Light Snow
1:08 AM 19.4 °F 12.8 °F 19.4 °F 100% 29.95 in 5.0 mi ENE 4.6 mph - N/A Snow Light Snow
1:13 AM 19.4 °F 11.5 °F 19.4 °F 100% 29.95 in 3.0 mi NE 5.8 mph - N/A Snow Light Snow
1:18 AM 19.4 °F 11.5 °F 19.4 °F 100% 29.95 in 2.0 mi NE 5.8 mph - N/A Snow Light Snow
1:48 AM 19.4 °F 12.8 °F 19.4 °F 100% 29.94 in 2.5 mi ENE 4.6 mph - N/A Snow Light Snow
1:53 AM 19.4 °F 14.3 °F 19.4 °F 100% 29.93 in 3.0 mi NNE 3.5 mph - N/A Snow Light Snow
1:58 AM 19.4 °F 11.5 °F 19.4 °F 100% 29.99 in 4.0 mi NE 5.8 mph - 0.00 in Snow Light Snow
2:08 AM 19.4 °F 12.8 °F 19.4 °F 100% 29.93 in 6.0 mi NE 4.6 mph - N/A Snow Light Snow
2:17 AM 19.4 °F 12.8 °F 19.4 °F 100% 29.93 in 8.0 mi NE 4.6 mph - N/A Snow Light Snow
2:57 AM 19.4 °F 12.8 °F 19.4 °F 100% 29.93 in 10.0 mi NE 4.6 mph - N/A Snow Light Snow
2:58 AM 19.6 °F 13.0 °F 19.0 °F 98% 29.99 in 10.0 mi NE 4.6 mph - 0.00 in Snow Light Snow
3:38 AM 19.4 °F 14.3 °F 19.4 °F 100% 29.92 in 9.0 mi NE 3.5 mph - N/A Snow Light Snow
3:58 AM 19.2 °F 14.1 °F 18.5 °F 97% 29.97 in 10.0 mi NNE 3.5 mph - 0.00 in Snow Light Snow
4:28 AM 19.4 °F - 17.6 °F 93% 29.91 in 10.0 mi NNE 1.2 mph - N/A Snow Light Snow
4:33 AM 19.4 °F - 17.6 °F 93% 29.92 in 10.0 mi ENE 2.3 mph - N/A Snow Light Snow
4:38 AM 19.4 °F - 17.6 °F 93% 29.92 in 10.0 mi ENE 2.3 mph - N/A Snow Light Snow
4:43 AM 19.4 °F - 17.6 °F 93% 29.92 in 10.0 mi NNE 1.2 mph - N/A Snow Light Snow
4:58 AM 18.9 °F - 17.6 °F 95% 29.99 in 9.0 mi NE 2.3 mph - 0.00 in Snow Light Snow
5:23 AM 19.4 °F 12.8 °F 17.6 °F 93% 29.92 in 10.0 mi North 4.6 mph - N/A Snow Light Snow
5:58 AM 17.6 °F 12.3 °F 17.6 °F 100% 29.98 in 10.0 mi North 3.5 mph - 0.00 in   Overcast
5:59 AM 17.6 °F 10.7 °F 17.6 °F 100% 29.93 in 10.0 mi North 4.6 mph - N/A Snow Light Snow
6:14 AM 17.6 °F - 17.6 °F 100% 29.93 in 9.0 mi NNE 2.3 mph - N/A Snow Light Snow
6:54 AM 17.6 °F - 17.6 °F 100% 29.94 in 10.0 mi NNE 1.2 mph - N/A Snow Light Snow
6:58 AM 18.3 °F - 17.8 °F 98% 30.00 in 10.0 mi Calm Calm - 0.00 in Snow Light Snow
6:59 AM 17.6 °F - 17.6 °F 100% 29.94 in 10.0 mi Calm Calm - N/A   Overcast
7:58 AM 17.6 °F - 17.1 °F 98% 30.01 in 10.0 mi NNE 1.2 mph - 0.00 in   Clear
8:18 AM 17.6 °F - 17.6 °F 100% 29.96 in 10.0 mi North 2.3 mph - N/A Snow Light Snow
8:53 AM 19.4 °F - 19.4 °F 100% 29.98 in 10.0 mi WNW 2.3 mph - N/A   Scattered Clouds
8:55 AM 19.4 °F - 19.4 °F 100% 29.98 in 10.0 mi WNW 2.3 mph - N/A Snow Light Snow
8:58 AM 19.9 °F - 18.9 °F 96% 30.04 in 10.0 mi WNW 2.3 mph - 0.00 in Snow Light Snow
9:17 AM 21.2 °F 14.9 °F 19.4 °F 93% 29.99 in 10.0 mi WNW 4.6 mph - N/A   Overcast
9:22 AM 21.2 °F 14.9 °F 19.4 °F 93% 29.99 in 10.0 mi WNW 4.6 mph - N/A   Overcast
9:58 AM 21.9 °F 15.7 °F 20.1 °F 93% 30.06 in 10.0 mi West 4.6 mph - 0.00 in   Overcast
10:58 AM 25.3 °F 15.3 °F 21.9 °F 87% 30.08 in 10.0 mi NW 10.4 mph - N/A   Overcast
11:30 AM 26.6 °F 13.8 °F 21.2 °F 80% 30.02 in 10.0 mi NNW 17.3 mph 21.9 mph N/A   Mostly Cloudy
11:40 AM 26.6 °F 15.2 °F 23.0 °F 86% 30.02 in 10.0 mi NNW 13.8 mph 20.7 mph N/A   Mostly Cloudy
11:57 AM 24.8 °F 13.4 °F 21.2 °F 86% 30.09 in 10.0 mi NNW 12.7 mph 21.9 mph N/A   Mostly Cloudy
11:58 AM 25.7 °F 13.5 °F 20.8 °F 82% 30.09 in 10.0 mi NNW 15.0 mph 21.9 mph 0.00 in   Mostly Cloudy
12:03 PM 26.6 °F 16.2 °F 19.4 °F 74% 30.03 in 10.0 mi North 11.5 mph 20.7 mph N/A   Mostly Cloudy
12:58 PM 25.9 °F 16.0 °F 16.5 °F 68% 30.04 in 10.0 mi NNW 10.4 mph - N/A   Clear
1:58 PM 27.0 °F 16.1 °F 17.6 °F 68% 30.10 in 10.0 mi NNW 12.7 mph - N/A   Clear
2:58 PM 27.0 °F 15.2 °F 16.0 °F 63% 30.11 in 10.0 mi NNW 15.0 mph - N/A   Clear
3:15 PM 26.6 °F 14.7 °F 15.8 °F 64% 30.05 in 10.0 mi North 15.0 mph 21.9 mph N/A   Clear
3:58 PM 25.9 °F 15.3 °F 14.7 °F 63% 30.14 in 10.0 mi NW 11.5 mph - N/A   Clear
4:58 PM 23.0 °F 12.4 °F 10.9 °F 60% 30.18 in 10.0 mi North 10.4 mph - N/A   Clear
5:58 PM 20.5 °F 6.4 °F 9.5 °F 63% 30.22 in 10.0 mi North 16.1 mph 20.7 mph N/A   Clear
6:58 PM 18.3 °F 8.2 °F 9.3 °F 68% 30.27 in 10.0 mi North 8.1 mph - N/A   Partly Cloudy
7:58 PM 15.8 °F 2.1 °F 6.8 °F 68% 30.31 in 10.0 mi North 12.7 mph 20.7 mph N/A   Clear
8:58 PM 15.4 °F 3.0 °F 6.4 °F 68% 30.33 in 10.0 mi North 10.4 mph - N/A   Clear
9:58 PM 14.5 °F 4.6 °F 6.1 °F 69% 30.34 in 10.0 mi North 6.9 mph - N/A   Clear
10:58 PM 13.1 °F 1.8 °F 5.0 °F 70% 30.36 in 10.0 mi North 8.1 mph - N/A   Clear
11:58 PM 11.3 °F 1.9 °F 4.1 °F 73% 30.37 in 10.0 mi NNW 5.8 mph - N/A   Clear